Location: Frankfurt+am+Main
(50.1100°N, 8.4815°E)
Time: 03:57:57
(UTC+01:00)

ISS - Pass Details

Date: 14 February 2018
Orbit: 402 x 407 km, 51.6° (Epoch: 23 February)

Event Time Altitude Azimuth Distance (km) Brightness Sun altitude
Rises 18:24:23 0° 280° (W) 2,320 1.6 -7.3°
Reaches altitude 10° 18:27:30 10° 247° (WSW) 1,456 0.6 -7.8°
Maximum altitude 18:28:48 12° 223° (SW) 1,345 -0.3 -8.0°
Drops below altitude 10° 18:30:05 10° 200° (SSW) 1,452 -0.6 -8.2°
Sets 18:33:12 0° 167° (SSE) 2,306 0.0 -8.7°
